Regional Weather Roundup
Issued by NWS Wakefield, VA

Home | Current Version | Previous Version | Text Only | Print | Product List | Glossary On
Versions: 1 2 3 4 5 6 7 8 9 10 11 12 13 14 15 16 17 18 19 20 21 22 23 24 25 26 27 28 29 30 31 32 33 34 35 36 37 38 39 40 41 42 43 44 45 46 47 48 49 50
000
ASUS41 KAKQ 281414
RWRAKQ

REGIONAL WEATHER ROUNDUP
NATIONAL WEATHER SERVICE WAKEFIELD VA
1000 AM EDT TUE APR 28 2015

Note: "fair" indicates few or no clouds below 12,000 feet with no
significant weather and/or obstructions to visibility. * = Denotes
station may not report precipitation (e.g., rain,snow,etc.),
thunder or fog.

VAZ042-051-052>054-056-281500-
NORTHERN VIRGINIA

CITY           SKY/WX    TMP DP  RH WIND       PRES   REMARKS
WASH NATIONAL  SUNNY     59  41  51 NW20      29.93F
DULLES         SUNNY     56  39  53 NW13G21   29.95S
FORT BELVOIR   SUNNY     58  39  49 NW13G23   29.93S
QUANTICO       SUNNY     58  38  47 N14G26    29.95F
FREDERICKSBRG* SUNNY     58  40  52 NW14G20   29.94S
STAFFORD*      SUNNY     56  38  51 N10G18    29.98F
WARRENTON      SUNNY     58  42  55 N15G21    29.95S
CULPEPER*      SUNNY     59  41  51 N12G20    29.96R
MANASSAS*      SUNNY     59  41  51 N16       29.95S
LEESBURG*      SUNNY     55  43  62 NW12G20   29.96S
WINCHESTER     SUNNY     55  34  44 NW21G26   29.97S
FRONT ROYAL*   FAIR      54  37  54 N3        29.97F
LURAY*         FAIR      54  41  62 CALM      30.00R
$$

VAZ048-049-060>072-079>083-281500-
CENTRAL AND SOUTH CENTRAL VIRGINIA

CITY           SKY/WX    TMP DP  RH WIND       PRES   REMARKS
RICHMOND       MOSUNNY   58  39  49 N15       29.93S
CHESTERFIELD*  FAIR      55  32  41 N9        29.94F
PETERSBURG*    SUNNY     58  37  45 N14       29.94R
HANOVER        SUNNY     57  40  52 VRB7      29.94F
TAPPAHANNOCK*  SUNNY     56  36  47 NW10G18   29.93S
QUINTON*       FAIR      54  39  56 N10G20    29.92F
CHARLOTTSVILLE SUNNY     57  37  47 VRB7      29.95F
GORDONSVILLE*  FAIR      55  38  52 NW5       29.95S
ORANGE*        SUNNY     57  41  54 NW8G17    29.97S
LOUISA*        SUNNY     57  39  51 N10G18    29.94S
BUMPASS*       FAIR      55  39  54 N7        29.95S
FARMVILLE*     SUNNY     57  38  48 N6        29.95S
CREWE*         FAIR      55  36  48 NW7       29.95S
FORT PICKETT*  FAIR      55  37  52 N10       29.95R
CHASE CITY*    FAIR      55  40  55 NW6       29.99R
CLARKSVILLE*   FAIR      52  36  54 NW5       29.99R
SOUTH HILL*    SUNNY     53  37  55 N3        30.02R
LAWRENCEVILLE* FAIR      55  39  55 N5        29.94S
EMPORIA*       SUNNY     54  37  54 NW7       29.96R
$$

VAZ088>098-281500-
SOUTHEAST VIRGINIA

CITY           SKY/WX    TMP DP  RH WIND       PRES   REMARKS
NORFOLK        SUNNY     55  39  54 NW14G20   29.89S
VIRGINIA BEACH MOSUNNY   57  42  57 NW17      29.89R
NORFOLK NAVAL  MOSUNNY   60  40  47 N15       29.91R
WEST POINT*    SUNNY     58  37  45 N8G17     29.92F
SALUDA*        FAIR      55  42  61 N13       29.89F
NEWPORT NEWS   SUNNY     59  40  49 NW15      29.90S
LANGLEY AFB    SUNNY     57  41  55 N16       29.88S
FORT EUSTIS    SUNNY     56  41  56 N8        29.89S
WILLIAMSBURG*  SUNNY     57  43  58 N13G22    29.91S
HR EXEC AP*    FAIR      55  41  58 NW6       29.92R
FRANKLIN*      SUNNY     55  39  56 W10       29.94R
WAKEFIELD      SUNNY     57  39  51 VRB7      29.92S
$$

VAZ020-022-025-037-045-281500-
WEST CENTRAL AND SOUTHWEST VIRGINIA

CITY           SKY/WX    TMP DP  RH WIND       PRES   REMARKS
STAUNTON*      SUNNY     52  37  57 N6        30.01F
WAYNESBORO*    FAIR      49  36  61 N7G17     30.00R
HOT SPRINGS VA SUNNY     40  32  72 NW7       29.97R
LYNCHBURG      SUNNY     53  34  48 VRB7      30.00R
DANVILLE       SUNNY     56  35  45 N8        30.01R
SOUTH BOSTON*  FAIR      54  35  47 W7        30.00R
MARTINSVILLE   SUNNY     54  34  46 N8G17     30.03S
ROANOKE        SUNNY     52  34  50 NE10      30.03R
BLACKSBURG     SUNNY     46  31  56 W5        30.04S
DUBLIN*        SUNNY     49  35  58 CALM      30.04R
MARION*        SUNNY     48  34  58 NE3       30.04R
HILLSVILLE*    SUNNY     44  32  64 NW8       30.01S
RICHLANDS*     FAIR      44  11  26 N3        30.03S
WISE*          SUNNY     45  32  61 N3        30.04R
ABINGDON*      SUNNY     51  37  58 CALM      30.03S
$$

MDZ021>025-VAZ099-100-281500-
SOUTHERN MARYLAND AND THE DELMARVA PENINSULA

CITY           SKY/WX    TMP DP  RH WIND       PRES   REMARKS
PATUXENT RIVER MOSUNNY   57  39  51 NW15      29.90F
BAY BRIDGE APT   N/A    N/A N/A N/A NW10G17   29.90F
LEONARDTOWN    SUNNY     55  37  50 NW9       29.92F
DOVER          MOSUNNY   58  42  56 NW16G24   29.83R
GEORGETOWN     PTSUNNY   57  40  52 NW9G18    29.86S
EASTON         MOSUNNY   59  45  58 N12G25    29.92F
CAMBRIDGE      SUNNY     55  39  54 NW13      29.88S
SALISBURY      MOSUNNY   57  40  52 N13       29.86S
OCEAN CITY     MOSUNNY   57  40  52 N13G22    29.86R
WALLOPS ISLAND MOSUNNY   57  41  55 NW12G24   29.86F
ACCOMACK*      SUNNY     55  10  16 NW15G26   29.87S
$$

NCZ012>017-030>032-281500-
NORTH CENTRAL AND EASTERN NORTH CAROLINA

CITY           SKY/WX    TMP DP  RH WIND       PRES   REMARKS
ROANOKE RAPIDS FAIR      54  37  54 N8        29.97R
RALEIGH        MOSUNNY   54  36  50 VRB6      30.00R
ELIZABETH CITY SUNNY     56  41  57 VRB7      29.92R
AHOSKIE*       SUNNY     53  38  55 CALM      29.96R
EDENTON*       SUNNY     55  40  58 N9        29.95R
CURRITUCK*     SUNNY     54  38  53 NW9       29.91S
KILL DEVIL HLS SUNNY     55  41  59 NW6       29.89S
MANTEO         SUNNY     54  41  60 N10G17    29.92R
CAPE HATTERAS  SUNNY     52  41  66 N7        29.92R
TARBORO*       FAIR      55  38  53 N7        29.98S
GOLDSBORO      MOSUNNY   54  37  52 N12G20    29.96R
WASHINGTON     MOSUNNY   55  38  52 N12       29.97R
GREENVILLE     MOSUNNY   55  37  50 N9        29.99R
NEW BERN       MOSUNNY   56  38  50 N9        29.97R
WILMINGTON     PTSUNNY   57  37  47 N9        29.97S
$$

VAZ048-281500-
ELSEWHERE

CITY           SKY/WX    TMP DP  RH WIND       PRES   REMARKS
HARRISBURG PA  MOSUNNY   57  39  51 N14       29.92S
BALTIMORE      MOSUNNY   58  39  49 NW12G22   29.90F
ANNAPOLIS      SUNNY     57  39  51 NW10      29.90F
ANDREWS AFB    SUNNY     57  40  53 NW16      29.91S
PHILADELPHIA   MOSUNNY   59  38  45 N22G31    29.85S
HENDERSON NC   SUNNY     53  34  47 NW6G16    29.99S
GREENSBORO     MOSUNNY   54  33  45 N12       29.99R
ROCKY MOUNT    SUNNY     57  37  47 N9        29.98R
$$

VAZ100-281500-
MARINE

STATION/POSITION TIME  TEMP    WIND        PRES    WAVE   SWELL
                       AIR SEA DIR/SP/G            HT/PER HT/PER
                 (UTC) (F)     (DEG/KT/KT) (MB)    (FT/S) (FT/S)
BRANDYWINE LGT   1300   52 52  340/ 18/ 21 1010.7R
CAPE MAY NJ      1300   54 56  330/ 12/ 18 1010.2R
LEWES DE         1300   52 52  340/ 18/ 21 1010.8R
15NM E FENWICK I 1350   50 48              1010.1R   3/ 5
OCEAN-CITY-INLET 1300   52 50  350/ 15/ 18 1010.4R
WACHAPREAGUE VA  1300   55 56  340/  6/ 16 1011.5F
THOMAS POINT MD  1400   55 53  330/ 15/ 17 1012.9F
GOOSES REEF MD   1400   53 53  350/ 14/ 16   N/A     2/ 3
COVE POINT MD    1300   51     350/ 20/ 23 1013.2R
SOLOMONS ISLAND  1300      55                N/A
BISHOPS HEAD MD  1300   53 53  320/ 12/ 18 1011.8R
PINEY POINT MD   1300          340/ 18/ 20   N/A
CAMBRIDGE MD     1300   53 58  310/ 13/ 16 1012.1R
LEWISETTA VA     1300   52 57              1012.6F
RAPPAHANNOCK LGT 1300          320/ 18/ 19 1012.4F
YORK RVR RNG VA  1300   51     350/ 21/ 24 1011.4F
YORKTOWN VA      1300   51 59  330/ 12/ 17 1012.2F
JAMESTOWN VA     1400   54 62  360/ 10/ 16 1012.0F
DOMINION TERM VA 1300   53      20/  2/  7 1012.3F
KIPTOPEKE VA     1300      61  350/ 18/ 25   N/A
CHES BAY BRIDGE  1300   51 56  330/ 19/ 22 1011.5F
CAPE HENRY VA    1300   51     330/ 20/ 24 1010.5F
CHESAPEAKE LGHT  1300   51     330/ 17/ 19 1011.9F
WILLOUBY STN VA  1300   52     340/ 16/ 21 1012.6F
S CRANEY ISL VA  1300          340/  8/ 12 1012.2F
CAPE HENRY BUOY  1328      51                N/A     3/ 4
OFFSHORE WE BUOY 1311      50                N/A     4/ 5
64NM E OF VA BCH 1350   52 55  330/ 17/ 21 1010.5R   6/ 6
DUCK PIER NC     1300   51 54  340/ 12/ 16 1011.3R
44056 DUCK FRF   1311      54                N/A     3/ 5
OREGON INLET NC  1300   52 57  320/ 10/ 16 1012.4R
HATTERAS NC      1300   52 60  330/ 14/ 16 1012.2R
DIAMOND SHLS NC  1350   54 74  350/ 14/ 19 1012.9R   4/ 5   2/ 8
CAPE LOOKOUT NC  1400   54     340/ 11/ 14 1013.5R
$$


USA.gov is the U.S. government's official web portal to all federal, state and local government web resources and services.